sat.trackr.live / text

‹ back to catalog

STARLINK-1266

NORAD 45383 · 2020-019Z

PAYLOAD ACTIVE UNKNOWN

§ Identity

Operator
Country
US
Launch date
2020-03-18
Launch site
AFETR
Launch vehicle
Mass (kg)
RCS (m²)

Purposes: comms

External: N2YO · Heavens-Above · Gunter

§ Orbital elements

Epoch: 2026-05-25T06:00:02.000160Z

Period
92.21 min
Inclination
53.0439°
Eccentricity
0.0001797
Mean motion
15.61624711 rev/d
Perigee alt
381.7 km
Apogee alt
384.2 km
Semi-major
6,761.1 km
B*
1.2548e-2
RAAN
124.7075°
Arg perigee
87.7130°
Mean anomaly
285.5157°
Rev number
588

§ Raw data

STARLINK-12661 45383U 20019Z   26145.25002315  .01228037  00000+0  12548-1 0  99942 45383  53.0439 124.7075 0001797  87.7130 285.5157 15.61624711  5883

JSON: /api/v1/satellites/45383 · /tle

For live sub-satellite position, see the globe view (requires WebGL).

§ Visibility from observer

Set your observer location to see the next 7 days of passes ≥ 10°. The values pass through the URL so the page stays shareable.

No JS? Fill the form by hand. The geolocation button needs JavaScript.